When you browse on this site, cookies collect data to enhance your experience and personalize the content and advertising you see.
Visit our Privacy Policy to learn more. By continuing to use the site, you agree to this use of cookies and data.
  • In Österreich
  • Länderverzeichnis
  • Für 7 Tage
  • Wassertemperatur
  • Wetterkarte
  • News
  • Widgets
  • user-avatar
    Anmelden

    Stündliche Wetter Zatyshne

    Heute, 18 August, Sonntag

    Zeit Temperatur Niederschläge Wind Luftdruck Luftfeuchtigkeit
    00:00 +15°C° 0 mm 2 m/S 737 mmHg 78%
    01:00 +14°C° 0 mm 2 m/S 738 mmHg 81%
    02:00 +14°C° 0 mm 2 m/S 738 mmHg 83%
    03:00 +14°C° 0 mm 2 m/S 738 mmHg 85%
    04:00 +13°C° 0 mm 1 m/S 738 mmHg 87%
    05:00 +13°C° 0 mm 1 m/S 738 mmHg 89%
    06:00 +15°C° 0 mm 2 m/S 738 mmHg 79%
    07:00 +17°C° 0 mm 2 m/S 738 mmHg 70%
    08:00 +19°C° 0 mm 2 m/S 738 mmHg 60%
    09:00 +21°C° 0 mm 3 m/S 738 mmHg 53%
    10:00 +24°C° 0 mm 3 m/S 739 mmHg 46%
    11:00 +26°C° 0 mm 3 m/S 739 mmHg 40%
    12:00 +26°C° 0 mm 3 m/S 739 mmHg 37%
    13:00 +27°C° 0 mm 4 m/S 739 mmHg 34%
    14:00 +28°C° 0 mm 4 m/S 739 mmHg 31%
    15:00 +28°C° 0 mm 3 m/S 739 mmHg 31%
    16:00 +28°C° 0 mm 3 m/S 739 mmHg 32%
    17:00 +28°C° 0 mm 3 m/S 739 mmHg 32%
    18:00 +25°C° 0 mm 3 m/S 739 mmHg 38%
    19:00 +23°C° 0 mm 2 m/S 739 mmHg 44%
    20:00 +20°C° 0 mm 2 m/S 739 mmHg 51%
    21:00 +19°C° 0 mm 2 m/S 739 mmHg 54%
    22:00 +19°C° 0 mm 1 m/S 739 mmHg 57%
    23:00 +18°C° 0 mm 1 m/S 740 mmHg 60%

    Morgen, 19 August, Montag

    Zeit Temperatur Niederschläge Wind Luftdruck Luftfeuchtigkeit
    00:00 +18°C° 0 mm 1 m/S 740 mmHg 62%
    01:00 +16°C° 0 mm 1 m/S 740 mmHg 63%
    02:00 +16°C° 0 mm 1 m/S 740 mmHg 64%
    03:00 +16°C° 0 mm 1 m/S 740 mmHg 65%
    04:00 +15°C° 0 mm 1 m/S 740 mmHg 66%
    05:00 +15°C° 0 mm 1 m/S 740 mmHg 68%
    06:00 +18°C° 0 mm 1 m/S 741 mmHg 60%
    07:00 +21°C° 0 mm 1 m/S 741 mmHg 53%
    08:00 +23°C° 0 mm 2 m/S 741 mmHg 45%
    09:00 +25°C° 0 mm 1 m/S 741 mmHg 42%
    10:00 +27°C° 0 mm 1 m/S 742 mmHg 38%
    11:00 +29°C° 0 mm 1 m/S 742 mmHg 34%
    12:00 +29°C° 0 mm 1 m/S 742 mmHg 32%
    13:00 +30°C° 0 mm 1 m/S 742 mmHg 30%
    14:00 +31°C° 0 mm 1 m/S 742 mmHg 28%
    15:00 +31°C° 0 mm 1 m/S 741 mmHg 28%
    16:00 +30°C° 0 mm 1 m/S 741 mmHg 27%
    17:00 +30°C° 0 mm 1 m/S 741 mmHg 27%
    18:00 +28°C° 0 mm 2 m/S 741 mmHg 32%
    19:00 +26°C° 0 mm 2 m/S 741 mmHg 37%
    20:00 +23°C° 0 mm 2 m/S 741 mmHg 42%
    21:00 +23°C° 0 mm 2 m/S 742 mmHg 44%
    22:00 +21°C° 0 mm 2 m/S 742 mmHg 46%
    23:00 +20°C° 0 mm 2 m/S 742 mmHg 47%

    übermorgen, 20 August, Dienstag

    Zeit Temperatur Niederschläge Wind Luftdruck Luftfeuchtigkeit
    00:00 +19°C° 0 mm 2 m/S 742 mmHg 50%
    01:00 +19°C° 0 mm 2 m/S 742 mmHg 52%
    02:00 +19°C° 0 mm 1 m/S 742 mmHg 55%
    03:00 +19°C° 0 mm 1 m/S 742 mmHg 57%
    04:00 +18°C° 0 mm 1 m/S 742 mmHg 60%
    05:00 +16°C° 0 mm 0 m/S 742 mmHg 62%
    06:00 +20°C° 0 mm 1 m/S 742 mmHg 55%
    07:00 +23°C° 0 mm 1 m/S 743 mmHg 49%
    08:00 +25°C° 0 mm 1 m/S 743 mmHg 42%
    09:00 +27°C° 0 mm 2 m/S 743 mmHg 38%
    10:00 +28°C° 0 mm 2 m/S 743 mmHg 34%
    11:00 +30°C° 0 mm 2 m/S 743 mmHg 31%
    12:00 +31°C° 0 mm 2 m/S 743 mmHg 29%
    13:00 +32°C° 0 mm 2 m/S 743 mmHg 27%
    14:00 +33°C° 0 mm 3 m/S 743 mmHg 25%
    15:00 +32°C° 0 mm 2 m/S 743 mmHg 25%
    16:00 +32°C° 0 mm 2 m/S 743 mmHg 26%
    17:00 +32°C° 0 mm 2 m/S 743 mmHg 26%
    18:00 +30°C° 0 mm 3 m/S 743 mmHg 32%
    19:00 +27°C° 0 mm 3 m/S 743 mmHg 37%
    20:00 +25°C° 0 mm 3 m/S 743 mmHg 43%
    21:00 +24°C° 0 mm 3 m/S 743 mmHg 45%
    22:00 +23°C° 0 mm 2 m/S 743 mmHg 48%
    23:00 +21°C° 0 mm 2 m/S 743 mmHg 50%

    21 August, Mittwoch

    Zeit Temperatur Niederschläge Wind Luftdruck Luftfeuchtigkeit
    00:00 +21°C° 0 mm 2 m/S 743 mmHg 52%
    01:00 +20°C° 0 mm 2 m/S 743 mmHg 54%
    02:00 +20°C° 0 mm 2 m/S 743 mmHg 56%
    03:00 +19°C° 0 mm 2 m/S 743 mmHg 57%
    04:00 +19°C° 0 mm 2 m/S 742 mmHg 58%
    05:00 +18°C° 0 mm 2 m/S 742 mmHg 58%
    06:00 +21°C° 0 mm 2 m/S 742 mmHg 53%
    07:00 +24°C° 0 mm 2 m/S 743 mmHg 48%
    08:00 +26°C° 0 mm 2 m/S 743 mmHg 43%
    09:00 +28°C° 0 mm 3 m/S 743 mmHg 38%
    10:00 +29°C° 0 mm 3 m/S 743 mmHg 34%
    11:00 +31°C° 0 mm 3 m/S 743 mmHg 30%
    12:00 +33°C° 0 mm 3 m/S 742 mmHg 28%
    13:00 +34°C° 0 mm 3 m/S 742 mmHg 26%
    14:00 +34°C° 0 mm 3 m/S 741 mmHg 24%
    15:00 +34°C° 0 mm 3 m/S 741 mmHg 24%
    16:00 +34°C° 0 mm 4 m/S 741 mmHg 25%
    17:00 +34°C° 0 mm 4 m/S 741 mmHg 26%
    18:00 +30°C° 0 mm 3 m/S 741 mmHg 31%
    19:00 +28°C° 0 mm 3 m/S 741 mmHg 36%
    20:00 +25°C° 0 mm 3 m/S 741 mmHg 42%
    21:00 +24°C° 0 mm 2 m/S 741 mmHg 44%
    22:00 +23°C° 0 mm 2 m/S 741 mmHg 47%
    23:00 +21°C° 0 mm 2 m/S 741 mmHg 50%

    22 August, Donnerstag

    Zeit Temperatur Niederschläge Wind Luftdruck Luftfeuchtigkeit
    00:00 +21°C° 0 mm 2 m/S 741 mmHg 51%
    01:00 +21°C° 0 mm 2 m/S 741 mmHg 52%
    02:00 +20°C° 0 mm 2 m/S 741 mmHg 53%
    03:00 +20°C° 0 mm 2 m/S 741 mmHg 54%
    04:00 +19°C° 0 mm 3 m/S 741 mmHg 56%
    05:00 +19°C° 0 mm 3 m/S 741 mmHg 57%
    06:00 +21°C° 0 mm 3 m/S 741 mmHg 54%
    07:00 +23°C° 0 mm 4 m/S 741 mmHg 50%
    08:00 +26°C° 0 mm 5 m/S 742 mmHg 46%
    09:00 +27°C° 0 mm 5 m/S 742 mmHg 44%
    10:00 +29°C° 0 mm 5 m/S 742 mmHg 42%
    11:00 +30°C° 0 mm 6 m/S 742 mmHg 41%
    12:00 +32°C° 0 mm 6 m/S 742 mmHg 42%
    13:00 +32°C° 0 mm 6 m/S 742 mmHg 43%
    14:00 +32°C° 0 mm 7 m/S 742 mmHg 44%
    15:00 +29°C° 0 mm 7 m/S 742 mmHg 48%
    16:00 +28°C° 0 mm 7 m/S 742 mmHg 52%
    17:00 +27°C° 0 mm 7 m/S 742 mmHg 56%
    18:00 +24°C° 0 mm 6 m/S 742 mmHg 62%
    19:00 +22°C° 0 mm 6 m/S 742 mmHg 69%
    20:00 +20°C° 0 mm 6 m/S 742 mmHg 75%
    21:00 +19°C° 0 mm 5 m/S 742 mmHg 78%
    22:00 +17°C° 0 mm 5 m/S 743 mmHg 80%
    23:00 +16°C° 0 mm 5 m/S 743 mmHg 82%

    23 August, Freitag

    Zeit Temperatur Niederschläge Wind Luftdruck Luftfeuchtigkeit
    00:00 +16°C° 0 mm 5 m/S 743 mmHg 84%
    01:00 +16°C° 0 mm 5 m/S 743 mmHg 85%
    02:00 +17°C° 0 mm 4 m/S 743 mmHg 86%
    03:00 +15°C° 0 mm 4 m/S 742 mmHg 89%
    04:00 +15°C° 0 mm 4 m/S 742 mmHg 92%
    05:00 +14°C° 0 mm 4 m/S 742 mmHg 94%
    06:00 +15°C° 0 mm 4 m/S 742 mmHg 87%
    07:00 +17°C° 0 mm 5 m/S 742 mmHg 80%
    08:00 +19°C° 0 mm 5 m/S 743 mmHg 74%
    09:00 +21°C° 0 mm 5 m/S 743 mmHg 65%
    10:00 +25°C° 0 mm 5 m/S 743 mmHg 56%
    11:00 +27°C° 0 mm 5 m/S 743 mmHg 47%
    12:00 +28°C° 0 mm 5 m/S 743 mmHg 44%
    13:00 +29°C° 0 mm 5 m/S 743 mmHg 41%
    14:00 +30°C° 0 mm 6 m/S 742 mmHg 38%
    15:00 +29°C° 0 mm 6 m/S 742 mmHg 40%
    16:00 +28°C° 0 mm 6 m/S 742 mmHg 43%
    17:00 +28°C° 0 mm 6 m/S 742 mmHg 46%
    18:00 +26°C° 0 mm 5 m/S 742 mmHg 54%
    19:00 +23°C° 0 mm 5 m/S 743 mmHg 61%
    20:00 +21°C° 0 mm 4 m/S 743 mmHg 69%
    21:00 +20°C° 0 mm 4 m/S 743 mmHg 73%
    22:00 +19°C° 0 mm 3 m/S 743 mmHg 76%
    23:00 +18°C° 0 mm 3 m/S 743 mmHg 80%
    Mehr zeigen